DW9768 Weather Reports


Display with metric or nautical units.
time (UTC)temp
F
wind
direction
speed
MPH
gust
MPH
rain 1hr
in
rain 24hr
in
rain mn
in
humidity
%
barometer
mb
20260506211534 41 340 4.0 8.0 0.00 0.00 0.00 72 1015.5
20260506210032 41 328 3.0 8.0 0.00 0.00 0.00 71 1015.5
20260506204531 41 324 4.0 9.0 0.00 0.00 0.00 71 1015.5
20260506203031 41 333 5.0 9.0 0.00 0.00 0.00 70 1015.6
20260506201530 42 305 6.0 10.0 0.00 0.00 0.00 69 1015.5
20260506200030 42 295 4.0 9.0 0.00 0.00 0.00 68 1015.5
20260506194528 42 330 6.0 11.0 0.00 0.00 0.00 66 1015.5
20260506193027 42 287 5.0 11.0 0.00 0.00 0.00 65 1015.5
20260506191526 43 300 6.0 12.0 0.00 0.00 0.00 63 1015.3
20260506190027 43 324 6.0 12.0 0.00 0.00 0.00 64 1015.3
20260506184525 43 336 7.0 15.0 0.00 0.00 0.00 60 1015.2
20260506183025 44 331 6.0 13.0 0.00 0.00 0.00 59 1015.1
20260506181524 44 308 6.0 14.0 0.00 0.00 0.00 57 1015.0
20260506180023 44 321 7.0 15.0 0.00 0.00 0.00 57 1015.0
20260506174522 45 321 10.0 16.0 0.00 0.00 0.00 59 1015.0
20260506173022 45 329 9.0 16.0 0.00 0.00 0.00 63 1014.9
20260506171524 45 311 8.0 15.0 0.00 0.00 0.00 59 1014.8
20260506170023 45 304 11.0 18.0 0.00 0.00 0.00 57 1014.7
20260506164520 45 340 9.0 17.0 0.00 0.00 0.00 54 1014.7
20260506163020 46 326 10.0 19.0 0.00 0.00 0.00 57 1014.6
20260506161521 46 319 9.0 17.0 0.00 0.00 0.00 58 1014.6
20260506160018 46 331 7.0 16.0 0.00 0.00 0.00 60 1014.7
20260506154518 46 334 8.0 15.0 0.00 0.00 0.00 60 1014.7
20260506153018 46 341 12.0 19.0 0.00 0.00 0.00 53 1014.7
20260506151517 47 315 9.0 16.0 0.00 0.00 0.00 56 1014.8
20260506150016 46 323 13.0 20.0 0.00 0.00 0.00 56 1014.8
20260506144520 46 342 13.0 16.0 0.00 0.00 0.00 54 1015.0
20260506143014 47 338 9.0 15.0 0.00 0.00 0.00 56 1015.1
20260506141613 47 329 9.0 14.0 0.00 0.00 0.00 55 1015.0
20260506140010 46 323 8.0 17.0 0.00 0.00 0.00 58 1015.0
20260506134510 47 323 7.0 15.0 0.00 0.00 0.00 60 1015.0
20260506133008 47 288 7.0 12.0 0.00 0.00 0.00 60 1015.1
20260506131507 46 321 7.0 14.0 0.00 0.00 0.00 57 1015.2
20260506130005 46 341 7.0 14.0 0.00 0.00 0.00 60 1015.2
20260506124601 46 311 6.0 13.0 0.00 0.00 0.00 63 1015.2
20260506123059 44 254 9.0 14.0 0.00 0.00 0.00 62 1015.2
20260506121558 44 277 9.0 13.0 0.00 0.00 0.00 67 1015.3
20260506120156 43 297 10.0 13.0 0.00 0.00 0.00 69 1015.4
20260506114554 43 273 6.0 13.0 0.00 0.00 0.00 68 1015.4
20260506113053 43 255 6.0 10.0 0.00 0.00 0.00 66 1015.3
20260506111552 42 275 5.0 9.0 0.00 0.00 0.00 71 1015.2
20260506110050 42 283 5.0 9.0 0.00 0.00 0.00 72 1015.3
20260506104555 42 292 4.0 8.0 0.00 0.00 0.00 74 1015.3
20260506103049 41 253 7.0 11.0 0.00 0.00 0.00 76 1015.2
20260506101550 41 266 9.0 15.0 0.00 0.00 0.00 75 1015.3
20260506100044 42 277 11.0 18.0 0.00 0.00 0.00 74 1015.4
20260506094544 43 271 8.0 11.0 0.00 0.00 0.00 69 1015.2
20260506093045 43 258 6.0 10.0 0.00 0.00 0.00 68 1015.2
20260506091545 43 271 4.0 9.0 0.00 0.00 0.00 65 1015.3
20260506090041 43 299 2.0 8.0 0.00 0.00 0.00 67 1015.3
20260506084540 43 340 4.0 8.0 0.00 0.00 0.00 72 1015.2
20260506083042 43 331 3.0 8.0 0.00 0.00 0.00 70 1015.2
20260506081539 42 281 4.0 7.0 0.00 0.00 0.00 68 1015.2
20260506073036 43 196 2.0 4.0 0.00 0.00 0.00 66 1015.1
20260506071536 44 129 1.0 4.0 0.00 0.00 0.00 65 1014.9
20260506061528 43 92 1.0 2.0 0.00 0.00 0.00 69 1014.9
20260506044512 37 346 0.0 0.0 0.00 0.00 0.00 81 1014.6
20260506043011 36 346 0.0 0.0 0.00 0.00 0.00 81 1014.6
20260506041510 36 346 0.0 0.0 0.00 0.00 0.00 80 1014.5
20260506040010 36 346 0.0 0.0 0.00 0.00 0.00 80 1014.4
20260506034509 36 335 0.0 0.0 0.00 0.00 0.00 82 1014.4
20260506033007 35 335 0.0 0.0 0.00 0.00 0.00 82 1014.5
20260506031508 35 335 0.0 0.0 0.00 0.00 0.00 80 1014.5
20260506030005 35 340 0.0 0.0 0.00 0.00 0.00 80 1014.6
20260506024505 36 333 0.0 0.0 0.00 0.00 0.00 80 1014.6
20260506023007 36 333 0.0 0.0 0.00 0.00 0.00 79 1014.6
20260506021504 36 5 0.0 0.0 0.00 0.00 0.00 80 1014.6
20260506020002 35 9 0.0 0.0 0.00 0.00 0.00 80 1014.6
20260506014501 35 331 0.0 0.0 0.00 0.00 0.00 79 1014.7
20260506013106 36 331 0.0 0.0 0.00 0.00 0.00 79 1014.7
20260506011623 36 333 0.0 0.0 0.00 0.00 0.00 79 1014.6
20260506010106 36 328 0.0 0.0 0.00 0.00 0.00 79 1014.7
20260506004554 37 328 0.0 0.0 0.00 0.00 0.00 79 1014.7
20260506003055 37 338 1.0 3.0 0.00 0.00 0.00 79 1014.7
20260506001550 37 323 0.0 0.0 0.00 0.00 0.00 78 1014.8
20260506000057 38 328 2.0 4.0 0.00 0.00 0.00 78 1014.7
20260505234548 38 324 1.0 3.0 0.00 0.00 0.00 78 1014.7
20260505233046 38 330 1.0 4.0 0.00 0.00 0.00 77 1014.7
20260505231545 38 322 0.0 0.0 0.00 0.00 0.00 77 1014.7
20260505230043 38 322 0.0 0.0 0.00 0.00 0.00 77 1014.6
20260505224542 38 322 0.0 0.0 0.00 0.00 0.00 76 1014.7
20260505223039 38 322 0.0 0.0 0.00 0.00 0.00 75 1014.7
20260505221541 38 322 0.0 0.0 0.00 0.00 0.00 75 1014.7
20260505220048 38 321 0.0 0.0 0.00 0.00 0.00 74 1014.7
20260505214534 38 313 0.0 0.0 0.00 0.00 0.00 73 1014.7
20260505213037 39 309 0.0 0.0 0.00 0.00 0.00 72 1014.7
20260505211538 39 314 0.0 3.0 0.00 0.00 0.00 71 1014.6